Regional Weather Roundup
Issued by NWS

Home | Current Version | Previous Version | Text Only | Print | Product List | Glossary On
Versions: 1 2 3 4 5 6 7 8 9 10 11 12 13 14 15 16 17 18 19 20 21 22 23 24 25 26 27 28 29 30 31 32 33 34 35 36 37 38 39 40 41 42 43 44 45 46 47 48 49 50
000
ASUS43 KLSX 280707
RWRMO

WEATHER SUMMARY FOR MISSOURI
NATIONAL WEATHER SERVICE SPRINGFIELD MO
200 AM CDT THU MAY 28 2015

NOTE: "FAIR" INDICATES FEW OR NO CLOUDS BELOW 12,000 FEET WITH NO
       SIGNIFICANT WEATHER AND/OR OBSTRUCTIONS TO VISIBILITY.
       CURRENT SKY AND/OR WEATHER CONDITIONS ARE NOT AVAILABLE FOR
       CHILLICOTHE AND FARMINGTON.

MOZ001>031-035>038-043-044-053-054-280800-
...NORTHERN AND WESTERN MISSOURI...

CITY           SKY/WX    TMP DP  RH WIND       PRES   REMARKS
KANSAS CTY INT MOCLDY    67  56  67 SE8       30.10R
KANSAS C DTWN  MOCLDY    68  58  70 E6        30.10R
LEE`S SUMMIT   CLOUDY    68  55  63 SE6       30.11S
ST JOSEPH      MOCLDY    62  57  83 CALM      30.10R
CHILLICOTHE      N/A     62  59  90 CALM      30.14R
KIRKSVILLE     MOCLDY    62  57  83 SE6       30.15F

$$
MOZ066>068-077>081-088>096-101>105-280800-
...SOUTHWEST MISSOURI...

CITY           SKY/WX    TMP DP  RH WIND       PRES   REMARKS
SPRINGFIELD    MOCLDY    69  64  84 SE8       30.12S
JOPLIN         MOCLDY    69  63  81 SE6       30.08F

$$
MOZ032>034-039>042-045>050-055>058-069>072-280800-
...CENTRAL MISSOURI...

CITY           SKY/WX    TMP DP  RH WIND       PRES   REMARKS
COLUMBIA       MOCLDY    65  57  75 E6        30.15R
JEFFERSON CITY MOCLDY    62  59  90 CALM      30.14S
ROLLA          MOCLDY    63  58  83 E7        30.14S
SEDALIA        MOCLDY    64  57  78 SE7       30.14S
WHITEMAN AFB   PTCLDY    64  57  78 E5        30.12R
WARRENSBURG    MOCLDY    63  57  82 E3        30.11S
OSAGE BEACH    CLOUDY    63  57  82 CALM      30.14S

$$
MOZ051-052-059>065-280800-
...EAST CENTRAL MISSOURI...

CITY           SKY/WX    TMP DP  RH WIND       PRES   REMARKS
ST LOUIS INTL  MOCLDY    68  57  68 SE3       30.16R
SPIRIT OF STL  MOCLDY    61  60  97 CALM      30.14S
ST CHARLES     PTCLDY    62  58  86 CALM      30.15R

$$
MOZ072>076-082>087-097>100-106>115-280800-
...SOUTH CENTRAL AND SOUTHEAST MISSOURI...

CITY           SKY/WX    TMP DP  RH WIND       PRES   REMARKS
CAPE GIRARDEAU MOCLDY    70  68  93 W3        30.14S
FARMINGTON     MOCLDY    64  63  94 E12G26    30.18F
POPLAR BLUFF   MOCLDY    67  65  93 SW3       30.12F
WEST PLAINS    MOCLDY    67  64  90 E3        30.16R

$$


USA.gov is the U.S. government's official web portal to all federal, state and local government web resources and services.